{"data":{"norad_id":41019,"epoch":"2026-05-24T20:15:26.561088Z","epoch_age_seconds":98558,"freshness":"FRESH","line1":"1 41019U 15062A   26144.84405742 -.00000106  00000+0  00000+0 0  9996","line2":"2 41019  56.9441  31.7103 0111404 231.2784 127.7540  2.00567019 77368","mean_motion":2.00567019,"eccentricity":0.0111404,"inclination_deg":56.9441,"raan_deg":31.7103,"arg_perigee_deg":231.2784,"mean_anomaly_deg":127.754,"bstar":0,"rev_number":7736,"period_min":717.96450242899,"perigee_km":19886.019786061,"apogee_km":20477.798866245,"semimajor_km":26560.046326153,"source":"CELESTRAK","updated_at":"2026-05-25T13:38:23.764962Z"}}